Tracking 25949 objects as of 9-Aug-2022
HD Live streaming from Space Station
objects crossing your sky now

STARLINK-4000

Track STARLINK-4000 now!
10-day predictions
STARLINK-4000 is classified as:


NORAD ID: 52605
Int'l Code: 2022-052H
Perigee: 545.8 km
Apogee: 548.0 km
Inclination: 53.2 °
Period: 95.4 minutes
Semi major axis: 6917 km
RCS: Unknown
Launch date: May 14, 2022
Source: United States (US)
Launch site: AIR FORCE EASTERN TEST RANGE (AFETR)
aabbcc
Your satellite tracking list
Your tracking list is empty




NASA's NSSDC Master Catalog

Two Line Element Set (TLE):
1 52605U 22052H   22220.91667824  .00032375  00000-0  20433-2 0  9994
2 52605  53.2166  39.4303 0001567  60.3721 287.4080 15.08832912  1305
Source of the keplerian elements: AFSPC